Location: Cabeza Gorda
(40.0667°N, 4.9667°W)
Time: 04:44:54
(UTC+00:00)

Meteor 2-13 Rocket - Pass Details

Date: 15 January 2026
Orbit: 935 x 958 km, 82.5° (Epoch: 14 February)

Event Time Altitude Azimuth Distance (km) Brightness Sun altitude
Rises 05:44:02 0° 352° (N) 3,632 7.3 -21.8°
Reaches altitude 10° 05:46:32 10° 352° (N) 2,680 6.6 -21.3°
Maximum altitude 05:52:41 90° 262° (W) 950 4.4 -20.2°
Drops below altitude 10° 05:58:45 10° 174° (S) 2,646 7.0 -19.1°
Sets 06:01:12 0° 175° (S) 3,584 7.7 -18.6°
